Location: Amanico Ergina Village
(37.7824°N, 122.4366°W)
Time: 07:49:23
(UTC+00:00)

FENGYUN 3A - Pass Details

Date: 29 October 2020
Orbit: 824 x 836 km, 98.4° (Epoch: 02 December)

Event Time Altitude Azimuth Distance (km) Brightness Sun altitude
Rises 12:34:24 0° 15° (NNE) 3,392 7.0 -23.9°
Reaches altitude 10° 12:36:47 10° 17° (NNE) 2,454 6.3 -23.4°
Maximum altitude 12:42:13 73° 102° (ESE) 873 3.8 -22.3°
Drops below altitude 10° 12:47:37 10° 187° (S) 2,436 6.0 -21.3°
Sets 12:49:58 0° 189° (S) 3,364 6.7 -20.8°
